This is the latest recevied weather packets stored in our database for station/object HS5GDX-4. If no packets are shown the sender has not sent any weather packets the latest 10 day(s).
| Time | Temp. | Humidity | Pressure | Rain* | Wind** | Luminosity | Snow |
|---|---|---|---|---|---|---|---|
| 1777997805 | 35° C | 40% | 968 hPa | - | - | 0 W/m² | - |
| 1777996877 | 34.44° C | 40% | 968 hPa | - | - | 0 W/m² | - |
| 1777995019 | 35° C | 39% | 968 hPa | - | - | 0 W/m² | - |
| 1777994090 | 33.89° C | 42% | 968 hPa | - | - | 0 W/m² | - |
| 1777993160 | 32.78° C | 44% | 967 hPa | - | - | 0 W/m² | - |
| 1777991301 | 33.33° C | 42% | 967 hPa | - | - | 0 W/m² | - |
| 1777988515 | 34.44° C | 39% | 966 hPa | - | - | 0 W/m² | - |
| 1777987584 | 34.44° C | 38% | 965 hPa | - | - | 0 W/m² | - |
| 1777986655 | 34.44° C | 38% | 965 hPa | - | - | 0 W/m² | - |
| 1777984798 | 33.89° C | 40% | 965 hPa | - | - | 0 W/m² | - |
| 1777983870 | 33.89° C | 41% | 965 hPa | - | - | 0 W/m² | - |
| 1777981085 | 35° C | 39% | 964 hPa | - | - | 0 W/m² | - |
| 1777980157 | 35.56° C | 39% | 964 hPa | - | - | 0 W/m² | - |
| 1777977372 | 36.67° C | 38% | 964 hPa | - | - | 0 W/m² | - |
| 1777976480 | 37.22° C | 37% | 964 hPa | - | - | 0 W/m² | - |
| 1777976443 | 37.22° C | 37% | 964 hPa | - | - | 0 W/m² | - |
| 1777975513 | 36.67° C | 37% | 964 hPa | - | - | 0 W/m² | - |
| 1777974585 | 37.22° C | 36% | 964 hPa | - | - | 0 W/m² | - |
| 1777973657 | 36.67° C | 37% | 964 hPa | - | - | 0 W/m² | - |
| 1777972729 | 36.67° C | 37% | 964 hPa | - | - | 0 W/m² | - |
| 1777971802 | 36.67° C | 37% | 965 hPa | - | - | 0 W/m² | - |
| 1777970873 | 36.67° C | 37% | 965 hPa | - | - | 0 W/m² | - |
| 1777969944 | 35.56° C | 39% | 965 hPa | - | - | 0 W/m² | - |
| 1777969015 | 35.56° C | 39% | 965 hPa | - | - | 0 W/m² | - |
| 1777968087 | 35° C | 41% | 965 hPa | - | - | 0 W/m² | - |
* Rain since midnight (hover to see other rain measurements)
** Current wind speed in m/s (hover to see current wind gust speed)